User: anonymous   Login
Location: McDonald Observatory
(30.6717°N, 104.0221°W)
Time: 18:30:17
(UTC-05:00)
Language:

Cosmos 1484 Rocket - Orbit

View from above orbital plane
View from above orbital plane
View from above satellite
View from above satellite

Ground track
Ground track

The orbit data is extracted from the following two-line orbital elements,

1 14208U 83075B   14297.78292433  .00005526  00000-0  36151-3 0  1583
2 14208 097.4114 330.0058 0041318 217.0420 142.7955 15.07455715701725
Epoch (UTC): 24 October 2014 18:47:24
Eccentricity: 0.0041318
inclination: 97.4114°
perigee height: 515 km
apogee height: 572 km
right ascension of ascending node: 330.0058°
argument of perigee: 217.0420°
revolutions per day: 15.07455715
mean anomaly at epoch: 142.7955°
orbit number at epoch: 70172

The dashed part of the orbit path shows where the satellite is in the earth's shadow,  

DLR